Regional Weather Roundup
Issued by NWS New Orleans/Baton Rouge, LA

Home | Current Version | Previous Version | Text Only | Print | Product List | Glossary On
Versions: 1 2 3 4 5 6 7 8 9 10 11 12 13 14 15 16 17 18 19 20 21 22 23 24 25 26 27
000
ASUS44 KLIX 202313
RWRLIX
NEW ORLEANS REGIONAL WEATHER ROUNDUP
NATIONAL WEATHER SERVICE NEW ORLEANS LA
600 PM CDT WED SEP 20 2017

NOTE: "FAIR" INDICATES FEW OR NO CLOUDS BELOW 12,000 FEET WITH NO
      SIGNIFICANT WEATHER AND/OR OBSTRUCTIONS TO VISIBILITY.
      SKY/WX - SKY CONDITION AND SIGNIFICANT WEATHER.
      TMP - AIR TEMPERATURE.     DP    - DEWPOINT TEMPERATURE.
      RH  - RELATIVE HUMIDITY.   PRES  - PRESSURE.
      HI  - HEAT INDEX.          WCI   - WIND CHILL INDEX.

*  THESE STATIONS ARE NOT NWS OR FAA STATIONS AND ARE NOT UNDER
   NWS QUALITY CONTROL.

LAZ038-040-048-061>063-065>067-069-210000-
SOUTHEAST LOUISIANA

CITY           SKY/WX    TMP DP  RH WIND       PRES   REMARKS
N.O. INTL ARPT LGT RAIN  75  72  90 CALM      29.96F
N.O. LAKEFRONT CLOUDY    80  74  81 SW5       29.97F
N.O. DOWNTOWN*   N/A     82  73  74 S5        29.97F
RESERVE*       TSTM      73  68  83 SW3       29.98F
SLIDELL        CLOUDY    81  74  79 SE3       29.96S
BATON ROUGE    PTSUNNY   82  69  64 E5        29.95R
BOOTHVILLE     SUNNY     86  74  67 S5        29.98R
BELLE CHASSE   NOT AVBL
BOGALUSA*        N/A     88  72  59 CALM      29.98R
GALLIANO*      CLEAR     86  71  60 S8        29.96S
NEW ROADS*       N/A     87  73  64 S3        29.95R
GONZALES*      MOCLDY    75  70  84 S9        29.98R THUNDER
HAMMOND*       CLOUDY    81  68  65 SW10      29.97R
HOUMA*         PTSUNNY   84  73  70 CALM      29.96R
PORT FOURCHON* PTCLDY    84  73  70 VRB6      29.98R

$$

MSZ070-080>082-210000-
SOUTHERN MISSISSIPPI

CITY           SKY/WX    TMP DP  RH WIND       PRES   REMARKS
MCCOMB         SUNNY     87  69  54 S3        29.97R
GULFPORT       CLOUDY    84  76  76 CALM      29.96R
BILOXI         CLOUDY    83  74  73 SW7       29.97R
PASCAGOULA     CLOUDY    83  75  77 SW5       29.97R
STENNIS ARPT*  PTSUNNY   81  73  78 E5        29.97S

$$

COASTAL OBSERVATIONS
LAKE AND NEARSHORE STATIONS

STATION/POSITION TIME  TEMP    WIND        PRES    WAVE
                       AIR SEA DIR/SP/G            HT/PER
                 (UTC) (F)     (DEG/KT/KT) (MB)    (FT/S)
PASCAGOULA       2242   84     240/  5/  9 1014.5
WAVELAND YACHT   2242   83 84  210/  2/  4 1015.0
GRAND ISLE       2242   84 87  220/  5/  7 1015.3
SOUTHWEST PASS   2242   85     230/  3/  4   N/A
NEW CANAL        2242   78 83  320/  1/  2 1014.6
SHELL BEACH      2242   84 87  130/  6/  8 1014.8

OFFSHORE STATIONS

STATION/POSITION TIME  TEMP    WIND        PRES    WAVE
                       AIR SEA DIR/SP/G            HT/PER
                 (UTC) (F)     (DEG/KT/KT) (MB)    (FT/S)
64 S DAUPHIN ISL 2250   83 85  160/  2/  4 1015.1    1

$$





USA.gov is the U.S. government's official web portal to all federal, state and local government web resources and services.